Location: Mentone
(34.5413°N, 85.5351°W)
Time: 04:05:50
(UTC-06:00)

Cosmos 2026 Rocket - Visible Passes

Search period start: 31 January 2015 00:00
Search period end: 10 February 2015 00:00
Orbit: 940 x 1001 km, 82.9° (Epoch: 29 January)

Date Brightness Start Highest point End Pass type
(mag) Time Alt. Az. Time Alt. Az. Time Alt. Az.
31 Jan 5.4 05:54:56 10° SSE 06:00:32 41° E 06:06:17 10° NNE visible
31 Jan 5.7 18:39:08 10° NNW 18:44:51 35° W 18:50:28 10° SSW visible
01 Feb 6.7 19:04:16 10° NW 19:08:39 19° W 19:12:44 10° SW visible
02 Feb 6.8 05:00:06 10° ESE 05:03:40 17° E 05:07:34 10° NE visible
02 Feb 4.2 17:41:27 10° N 17:47:50 83° W 17:54:13 10° S visible
03 Feb 5.9 05:22:11 10° SSE 05:27:26 32° E 05:32:52 10° NNE visible
03 Feb 5.3 18:05:44 10° NNW 18:11:46 45° W 18:17:44 10° SSW visible
04 Feb 4.6 05:45:19 10° S 05:51:17 61° E 05:57:24 10° NNE visible
04 Feb 6.4 18:30:33 10° NW 18:35:36 24° W 18:40:27 10° SW visible
05 Feb 7.0 04:28:20 10° ESE 04:30:37 13° E 04:33:21 10° ENE visible
05 Feb 4.0 06:09:11 10° SSW 06:15:16 73° W 06:21:29 10° N visible
05 Feb 7.1 18:56:37 10° WNW 18:59:20 12° W 19:01:35 10° WSW visible
06 Feb 6.2 04:49:36 10° SE 04:54:21 25° E 04:59:20 10° NNE visible
06 Feb 4.9 17:32:25 10° NNW 17:38:41 58° W 17:44:52 10° S visible
07 Feb 5.1 05:12:23 10° SSE 05:18:10 47° E 05:24:06 10° NNE visible
07 Feb 6.1 17:57:00 10° NNW 18:02:32 31° W 18:07:56 10° SSW visible
08 Feb 4.0 05:35:58 10° S 05:42:05 87° E 05:48:21 10° N visible
08 Feb 6.9 18:22:20 10° NW 18:26:18 17° W 18:29:56 10° WSW visible
09 Feb 6.5 04:17:13 10° SE 04:21:17 19° E 04:25:39 10° NE visible
09 Feb 4.2 06:00:13 10° SSW 06:06:10 51° W 06:12:12 10° N visible
